Date String (YYYY-MM-DD hh:mm:ss) UTC,Instrument flags,absolute air pressure of the measurement (hPa),sample flow rate (lpm),inlet stack bypass flow (lpm),air temperature of the measurement (°C),ambient temperature measured by the external sensor (°C),aerosol sample conditioner tube jacket temperature (°C),OPC LED temperature (°C),internal box temperature (°C),relative humidity of the measurement (%),span deviation,mass concentration of particles derived from Lorenz-Mie calculation of OPC scattering (μg/m³),mass concentration of particles derived from Lorenz-Mie calculation of OPC scattering (μg/m³),mass concentration of particles derived from Lorenz-Mie calculation of OPC scattering (μg/m³)
DateTimeUTC,F1_M11,P_M11,Q1_M11,Q2_M11,T1_M11,T2_M11,T3_M11,T4_M11,T5_M11,U1_M11,ZSPAN_M11,X2_M11,X0_M11,X1_M11
2023-07-06 13:00:00,SystemResetWarning,0833.7,5.02,000.00,030.1,027.8,000.0,038.6,031.3,34.3,-002.1,0008.67,0012.65,0008.28
2023-07-06 13:01:00,SystemResetWarning,0833.7,5.00,000.00,030.2,027.9,000.0,038.6,031.3,34.3,-002.0,0008.68,0012.64,0008.28
2023-07-06 13:02:00,SystemResetWarning,0833.7,4.99,000.00,030.2,028.1,000.0,038.6,031.3,34.3,-002.0,0008.64,0012.61,0008.25
2023-07-06 13:03:00,SystemResetWarning,0833.7,4.99,000.00,030.2,028.2,000.0,038.6,031.3,34.2,-001.9,0008.62,0012.60,0008.21
2023-07-06 13:04:00,SystemResetWarning,0833.7,5.01,000.00,030.2,028.2,000.0,038.6,031.4,34.2,-001.8,0008.64,0012.74,0008.20
2023-07-06 13:05:00,SystemResetWarning,0833.7,5.01,000.00,030.2,028.3,000.0,038.6,031.4,34.2,-001.9,0008.63,0012.94,0008.18
2023-07-06 13:06:00,SystemResetWarning,0833.7,4.99,000.00,030.2,028.4,000.0,038.7,031.4,34.2,-002.0,0008.60,0012.86,0008.16
2023-07-06 13:07:00,SystemResetWarning,0833.7,4.99,000.00,030.2,028.4,000.0,038.7,031.4,34.1,-002.0,0008.56,0012.81,0008.13
2023-07-06 13:08:00,SystemResetWarning,0833.7,5.00,000.00,030.2,028.5,000.0,038.7,031.4,34.1,-002.1,0008.53,0012.52,0008.10
2023-07-06 13:09:00,SystemResetWarning,0833.6,5.02,000.00,030.2,028.5,000.0,038.7,031.5,34.0,-002.1,0008.46,0012.35,0008.04
2023-07-06 13:10:00,SystemResetWarning,0833.7,4.99,000.00,030.3,028.5,000.0,038.7,031.5,34.0,-002.1,0008.36,0012.41,0007.96
2023-07-06 13:11:00,SystemResetWarning,0833.7,4.99,000.00,030.3,028.5,000.0,038.7,031.5,33.9,-001.9,0008.32,0012.36,0007.93
2023-07-06 13:12:00,SystemResetWarning,0833.7,5.01,000.00,030.3,028.6,000.0,038.7,031.5,34.0,-002.0,0008.28,0012.35,0007.89
2023-07-06 13:13:00,SystemResetWarning,0833.6,5.01,000.00,030.3,028.6,000.0,038.7,031.5,33.9,-002.1,0008.29,0012.39,0007.89
2023-07-06 13:14:00,SystemResetWarning,0833.6,4.99,000.00,030.3,028.6,000.0,038.8,031.6,33.8,-002.1,0008.29,0012.38,0007.89
2023-07-06 13:15:00,SystemResetWarning,0833.7,4.99,000.00,030.3,028.7,000.0,038.8,031.6,33.7,-002.0,0008.23,0012.26,0007.86
2023-07-06 13:16:00,SystemResetWarning,0833.7,4.99,000.00,030.3,028.7,000.0,038.8,031.6,33.8,-001.9,0008.18,0012.21,0007.82
2023-07-06 13:17:00,SystemResetWarning,0833.7,5.00,000.00,030.3,028.7,000.0,038.8,031.6,33.8,-001.8,0008.12,0012.22,0007.76
2023-07-06 13:18:00,SystemResetWarning,0833.7,5.01,000.00,030.3,028.8,000.0,038.8,031.7,33.8,-001.8,0008.09,0012.14,0007.73
2023-07-06 13:19:00,SystemResetWarning,0833.7,5.01,000.00,030.4,028.8,000.0,038.8,031.7,33.8,-001.7,0008.07,0012.48,0007.70
2023-07-06 13:20:00,SystemResetWarning,0833.8,5.00,000.00,030.4,028.8,000.0,038.8,031.7,33.8,-001.7,0008.03,0012.51,0007.67
2023-07-06 13:21:00,SystemResetWarning,0833.8,4.99,000.00,030.4,028.8,000.0,038.8,031.7,33.9,-001.4,0008.03,0012.24,0007.68
2023-07-06 13:22:00,SystemResetWarning,0833.7,5.00,000.00,030.4,028.8,000.0,038.8,031.7,33.9,-001.7,0008.05,0012.28,0007.68
2023-07-06 13:23:00,SystemResetWarning,0833.7,5.00,000.00,030.4,028.8,000.0,038.8,031.7,34.0,-001.7,0008.06,0012.72,0007.69
2023-07-06 13:24:00,SystemResetWarning,0833.7,5.00,000.00,030.4,028.9,000.0,038.8,031.8,33.9,-001.9,0008.05,0013.17,0007.69
2023-07-06 13:25:00,SystemResetWarning,0833.7,5.00,000.00,030.4,028.9,000.0,038.8,031.8,34.0,-001.8,0008.06,0013.17,0007.68
2023-07-06 13:26:00,SystemResetWarning,0833.7,5.00,000.00,030.4,028.9,000.0,038.9,031.8,34.2,-001.9,0008.04,0013.13,0007.67
2023-07-06 13:27:00,SystemResetWarning,0833.7,5.01,000.00,030.4,028.9,000.0,038.9,031.8,34.2,-002.1,0008.05,0013.38,0007.67
2023-07-06 13:28:00,SystemResetWarning,0833.7,5.00,000.00,030.4,028.9,000.0,038.9,031.8,34.2,-002.2,0008.08,0013.54,0007.69
2023-07-06 13:29:00,SystemResetWarning,0833.7,5.00,000.00,030.4,028.9,000.0,038.9,031.8,34.5,-002.1,0008.08,0013.55,0007.70
2023-07-06 13:30:00,SystemResetWarning,0833.7,5.00,000.00,030.4,029.0,000.0,038.9,031.8,34.6,-002.2,0008.08,0013.28,0007.70
2023-07-06 13:31:00,SystemResetWarning,0833.7,4.99,000.00,030.4,029.0,000.0,038.9,031.8,34.9,-002.1,0008.14,0013.21,0007.75
2023-07-06 13:32:00,SystemResetWarning,0833.7,4.98,000.00,030.5,029.0,000.0,038.9,031.9,35.1,-002.1,0008.18,0013.38,0007.77
2023-07-06 13:33:00,SystemResetWarning,0833.7,5.03,000.00,030.6,029.0,000.0,038.9,031.9,34.9,-002.0,0008.18,0013.34,0007.78
2023-07-06 13:34:00,SystemResetWarning,0833.7,4.97,000.00,030.8,028.9,000.0,038.9,032.0,34.4,-002.0,0008.17,0013.02,0007.78
2023-07-06 13:35:00,SystemResetWarning,0833.7,5.00,000.00,030.9,027.3,000.0,038.8,031.9,34.4,-001.9,0008.17,0012.47,0007.76
2023-07-06 13:36:00,SystemResetWarning,0833.7,5.00,000.00,030.9,025.9,000.0,038.8,031.6,34.3,-002.0,0008.13,0012.40,0007.74
2023-07-06 13:37:00,SystemResetWarning,0833.7,5.01,000.00,030.8,025.6,000.0,038.8,031.2,34.4,-002.0,0008.13,0012.50,0007.72
2023-07-06 13:38:00,SystemResetWarning,0833.7,5.00,000.00,030.6,025.9,000.0,038.8,031.1,34.9,-001.9,0008.12,0012.32,0007.71
2023-07-06 13:39:00,SystemResetWarning,0833.7,5.00,000.00,030.6,026.3,000.0,038.9,031.2,35.1,-001.8,0008.10,0011.99,0007.70
2023-07-06 13:40:00,SystemResetWarning,0833.7,5.01,000.00,030.8,026.7,000.0,038.9,031.4,34.6,-001.9,0008.09,0011.99,0007.69
2023-07-06 13:41:00,SystemResetWarning,0833.7,4.98,000.00,031.0,027.1,000.0,038.9,031.4,34.3,-001.8,0008.08,0011.96,0007.68
2023-07-06 13:42:00,SystemResetWarning,0833.7,5.01,000.00,031.0,027.4,000.0,038.9,031.5,34.3,-001.7,0008.05,0011.86,0007.69
2023-07-06 13:43:00,SystemResetWarning,0833.7,5.01,000.00,031.1,027.6,000.0,039.0,031.5,34.2,-001.8,0008.04,0011.76,0007.67
2023-07-06 13:44:00,SystemResetWarning,0833.7,4.99,000.00,031.1,027.8,000.0,039.0,031.5,34.2,-001.8,0008.02,0011.78,0007.64
2023-07-06 13:45:00,SystemResetWarning,0833.7,4.99,000.00,031.1,028.0,000.0,039.1,031.5,33.9,-001.7,0007.96,0011.67,0007.58
2023-07-06 13:46:00,SystemResetWarning,0833.7,5.02,000.00,031.1,028.1,000.0,039.1,031.6,34.0,-001.7,0007.92,0011.60,0007.55
2023-07-06 13:47:00,SystemResetWarning,0833.7,4.99,000.00,031.1,028.3,000.0,039.2,031.6,34.2,-001.8,0007.91,0011.76,0007.53
2023-07-06 13:48:00,SystemResetWarning,0833.6,4.99,000.00,031.1,028.4,000.0,039.2,031.6,34.2,-001.7,0007.90,0011.77,0007.51
2023-07-06 13:49:00,SystemResetWarning,0833.7,5.03,000.00,031.1,028.4,000.0,039.2,031.7,33.9,-001.7,0007.89,0011.45,0007.52
2023-07-06 13:50:00,SystemResetWarning,0833.7,4.99,000.00,031.1,028.5,000.0,039.3,031.7,33.7,-001.6,0007.89,0011.63,0007.50
2023-07-06 13:51:00,SystemResetWarning,0833.7,4.99,000.00,031.1,028.6,000.0,039.3,031.7,34.0,-001.5,0007.90,0011.86,0007.50
2023-07-06 13:52:00,SystemResetWarning,0833.7,5.01,000.00,031.1,028.6,000.0,039.3,031.8,34.0,-001.6,0007.92,0011.91,0007.49
2023-07-06 13:53:00,SystemResetWarning,0833.7,5.01,000.00,031.1,028.7,000.0,039.3,031.7,34.0,-001.8,0007.89,0011.93,0007.46
2023-07-06 13:54:00,SystemResetWarning,0833.7,5.00,000.00,031.1,028.7,000.0,039.3,031.8,34.1,-001.7,0007.87,0011.87,0007.45
2023-07-06 13:55:00,SystemResetWarning,0833.7,4.99,000.00,031.1,028.7,000.0,039.4,031.8,34.3,-001.6,0007.84,0012.05,0007.45
2023-07-06 13:56:00,SystemResetWarning,0833.7,4.99,000.00,031.1,028.8,000.0,039.4,031.8,34.2,-001.5,0007.84,0012.41,0007.47
2023-07-06 13:57:00,SystemResetWarning,0833.7,5.00,000.00,031.1,028.8,000.0,039.4,031.9,34.1,-001.4,0007.90,0012.65,0007.51
2023-07-06 13:58:00,SystemResetWarning,0833.7,5.00,000.00,031.0,028.8,000.0,039.4,031.9,34.2,-001.3,0007.93,0012.62,0007.53
2023-07-06 13:59:00,SystemResetWarning,0833.7,5.01,000.00,031.0,028.9,000.0,039.4,031.9,34.2,-001.4,0007.96,0012.52,0007.56
